Weather History for Topeka Forbes, KS

Change the Weather History Date:

Wednesday, September 26, 2012

  Actual Average Record
Temperature  
Mean Temperature 67 °F -  
Max Temperature 73 °F 76 °F 96 °F (1990)
Min Temperature 62 °F 49 °F 32 °F (1975)
Cooling Degree Days 2    
Growing Degree Days 17 (Base 50)    
Moisture  
Dew Point 61 °F    
Average Humidity 85    
Maximum Humidity 94    
Minimum Humidity 70    
Precipitation  
Precipitation 0.10 in - - ()
Sea Level Pressure  
Sea Level Pressure 29.99 in    
Wind  
Wind Speed 7 mph (West)    
Max Wind Speed 18 mph    
Max Gust Speed 30 mph    
Visibility 10 miles    
Events Rain , Thunderstorm    
Averages and records for this station are not official NWS values.
T = Trace of Precipitation, MM = Missing Value Source: NWS Daily Summary

Daily Weather History Graph

Daily Weather History Graph

Search for Another Location

Airport:

Trip Planner

Search our weather history database for the weather conditions in past years. The results will help you decide how hot, cold, wet, or windy it might be!

Date:

Astronomy

Sep. 26, 2012 Rise Set
Actual Time 7:14 AM CDT 7:12 PM CDT
Civil Twilight 6:47 AM CDT 7:38 PM CDT
Nautical Twilight 6:16 AM CDT 8:09 PM CDT
Astronomical Twilight 5:45 AM CDT 8:41 PM CDT
Moon 5:11 PM CDT (9/26) 3:43 AM CDT (9/26)
Length of Visible Light 12h 51m
Length of Day
11h 57m
Waxing Gibbous, 88% of the Moon is Illuminated
Sep 26
Waxing Gibbous
Sep 29
Full
Oct 8
Last Quarter
Oct 15
New
Oct 21
First Quarter

Hourly Weather History & Observations

Time (CDT) Temp. Dew Point Humidity Pressure Visibility Wind Dir Wind Speed Gust Speed Precip Events Conditions
12:53 AM 66.0 °F 63.0 °F 90% 29.85 in 10.0 mi South 6.9 mph - N/A   Clear
1:53 AM 64.9 °F 62.1 °F 90% 29.87 in 10.0 mi WSW 4.6 mph - 0.00 in Rain Light Rain
2:39 AM 64.4 °F 60.8 °F 88% 29.93 in 10.0 mi SSW 16.1 mph 29.9 mph 0.03 in Rain , Thunderstorm Light Thunderstorms and Rain
2:53 AM 64.0 °F 61.0 °F 90% 29.89 in 10.0 mi SSW 18.4 mph 25.3 mph 0.04 in Rain , Thunderstorm Light Thunderstorms and Rain
3:19 AM 62.6 °F 60.8 °F 94% 29.91 in 10.0 mi South 12.7 mph 21.9 mph 0.03 in Rain Light Rain
3:53 AM 64.0 °F 60.1 °F 87% 29.85 in 10.0 mi South 9.2 mph - 0.03 in Rain Light Rain
4:53 AM 64.0 °F 59.0 °F 84% 29.87 in 10.0 mi West 5.8 mph - 0.00 in   Clear
5:53 AM 63.0 °F 60.1 °F 90% 29.91 in 10.0 mi Calm Calm - N/A   Clear
7:53 AM 62.1 °F 60.1 °F 93% 29.98 in 10.0 mi West 4.6 mph - N/A   Mostly Cloudy
8:53 AM 63.0 °F 61.0 °F 93% 29.98 in 10.0 mi Calm Calm - N/A   Partly Cloudy
9:53 AM 64.9 °F 62.1 °F 90% 30.00 in 10.0 mi SW 9.2 mph - N/A   Clear
10:53 AM 66.9 °F 62.1 °F 84% 30.02 in 10.0 mi WSW 3.5 mph - N/A   Overcast
11:53 AM 71.1 °F 64.0 °F 78% 30.03 in 10.0 mi WSW 10.4 mph - 0.00 in   Overcast
12:53 PM 70.0 °F 60.1 °F 71% 30.02 in 10.0 mi Calm Calm - N/A   Mostly Cloudy
1:53 PM 72.0 °F 62.1 °F 71% 30.02 in 10.0 mi WNW 4.6 mph - 0.00 in Rain Light Rain
2:53 PM 72.0 °F 62.1 °F 71% 30.02 in 10.0 mi NNW 8.1 mph - 0.00 in   Scattered Clouds
3:53 PM 70.0 °F 62.1 °F 76% 30.04 in 10.0 mi NW 10.4 mph - 0.00 in   Mostly Cloudy
4:53 PM 70.0 °F 63.0 °F 78% 30.03 in 10.0 mi NNW 11.5 mph - N/A   Scattered Clouds
5:53 PM 68.0 °F 62.1 °F 81% 30.03 in 10.0 mi NNW 5.8 mph - N/A   Mostly Cloudy
6:53 PM 66.9 °F 63.0 °F 87% 30.06 in 10.0 mi North 8.1 mph - N/A   Overcast
7:28 PM 64.4 °F 60.8 °F 88% 30.08 in 10.0 mi North 5.8 mph - N/A   Overcast
7:53 PM 64.0 °F 60.1 °F 87% 30.07 in 10.0 mi NE 3.5 mph - N/A   Overcast
8:53 PM 63.0 °F 60.1 °F 90% 30.08 in 10.0 mi Calm Calm - 0.02 in   Overcast
9:53 PM 62.1 °F 59.0 °F 90% 30.09 in 10.0 mi NNW 3.5 mph - N/A   Overcast
10:53 PM 63.0 °F 60.1 °F 90% 30.09 in 10.0 mi NNE 4.6 mph - 0.01 in Rain Light Rain
11:53 PM 64.9 °F 55.0 °F 70% 30.10 in 10.0 mi East 8.1 mph - 0.00 in   Overcast